Helicity
221 84 137 115 70 62 58 55 48 54 56 77 95 94 92 87 76 68 60 49 41 45 56 56 55 54 48 39 35 38 35 30 31 28 26 25 23 34 35 32 18 35 57
236 159 182 174 145 97 73 65 57 61 68 72 103 93 91 84 72 71 69 62 50 52 55 54 53 52 43 43 41 37 35 25 26 21 11 -4 18 24 31 29 33 81 54
217 154 167 188 179 151 139 139 115 99 99 87 96 96 88 90 86 92 107 92 70 62 58 63 63 59 47 42 41 37 37 30 20 14 -5 -15 128 14 36 31 35 47 46
204 208 184 182 152 134 132 124 122 120 177 169 162 153 147 138 126 135 147 139 135 133 129 119 104 85 79 65 53 42 35 32 28 12 -2 13 7 98 51 29 27 26 28
208 179 205 213 194 179 176 155 140 132 170 223 176 162 149 134 132 152 158 151 147 150 154 153 146 124 115 100 91 76 52 37 22 9 -2 2 20 103 45 38 15 18 25
172 182 214 219 197 174 165 153 156 192 218 210 185 150 147 138 139 146 159 156 148 140 129 128 122 122 123 116 113 108 85 57 30 8 -11 45 43 78 46 46 34 32 27
248 259 246 218 174 155 157 156 170 204 157 170 172 138 138 134 135 137 142 139 135 130 117 112 107 100 102 96 93 105 101 78 40 25 22 21 40 117 74 52 35 38 28
237 253 271 233 203 182 174 180 181 178 153 162 151 132 128 132 131 135 137 131 127 119 108 104 93 83 68 65 65 64 74 82 59 36 27 9 111 118 80 49 44 35 38
178 168 206 183 206 254 265 230 178 143 154 149 125 109 102 106 111 107 123 121 123 113 105 97 84 72 62 50 34 44 40 43 48 56 43 60 52 99 67 52 52 40 34
176 154 136 78 91 236 266 226 175 158 139 139 122 103 78 50 56 92 99 115 113 112 97 81 67 64 47 25 13 8 13 11 27 25 72 66 95 138 83 52 43 41 39
154 142 110 70 132 131 126 130 114 98 85 87 77 95 58 89 86 80 99 95 106 112 78 74 64 61 35 20 -7 8 19 27 23 59 62 147 146 91 106 86 58 44 43
147 138 106 72 69 78 91 80 78 85 100 110 111 106 92 80 84 75 70 45 60 97 44 72 51 54 44 81 72 28 62 85 78 52 52 143 144 102 95 115 122 124 54
147 138 110 80 91 78 92 68 72 74 79 82 113 112 94 87 95 93 90 88 82 82 79 76 69 73 76 64 75 73 76 64 61 65 93 99 80 64 85 86 98 108 152
147 129 98 82 100 120 73 103 91 96 93 101 107 122 103 102 104 107 98 86 70 65 69 68 63 65 62 57 57 63 72 72 79 87 99 106 48 38 37 60 77 91 95
152 131 128 112 112 101 100 93 96 98 109 106 107 122 127 119 106 95 78 70 66 69 72 71 69 62 56 53 52 47 50 59 67 78 86 107 67 26 24 36 74 94 96
157 143 136 141 123 113 111 105 98 105 85 97 102 109 118 103 98 90 84 85 85 85 78 68 63 49 42 44 39 42 39 37 44 62 73 82 87 42 15 16 42 77 86
137 154 162 145 121 111 95 87 89 83 79 77 82 115 134 137 117 108 106 105 108 97 90 74 63 45 34 30 37 36 22 23 31 49 61 65 81 68 33 13 5 31 58
144 153 138 122 101 88 83 84 93 92 93 98 111 125 143 150 140 121 112 115 94 82 74 58 49 49 39 35 36 19 8 12 21 11 41 117 129 122 100 68 49 56 87
174 167 151 128 115 108 112 116 122 120 128 133 142 138 146 143 136 116 120 109 72 66 68 69 50 38 27 33 26 -2 3 -17 0 69 55 94 114 200 238 305 249 156 141
168 159 155 149 141 130 124 130 133 137 141 129 122 119 122 115 121 115 102 84 63 71 64 54 41 44 31 42 7 -11 -46 23 60 20 25 65 53 103 144 175 159 174 186
191 184 182 157 132 100 98 113 119 134 117 111 101 110 114 122 120 108 79 74 66 69 73 75 56 62 52 51 -2 0 -36 -4 40 -24 23 40 125 133 94 125 177 256 270
190 203 164 141 117 115 115 154 144 128 127 110 102 117 131 126 110 88 78 68 73 67 75 82 94 87 64 67 50 -25 17 -24 39 32 30 105 156 182 249 281 248 252 211
164 159 154 148 140 144 127 98 103 92 73 78 99 113 112 91 81 77 84 88 92 95 96 103 105 107 95 80 67 22 -13 37 22 20 51 53 61 72 125 179 156 182 175
192 208 197 186 174 150 125 116 105 113 118 141 120 122 94 102 99 104 110 109 111 99 105 99 94 94 88 85 49 33 -10 -19 -8 8 20 73 79 66 115 128 129 116 167
187 208 207 178 167 148 146 138 120 164 168 141 119 94 88 81 93 99 109 107 98 88 87 92 83 84 67 58 51 42 11 -7 17 -5 6 36 55 43 35 29 47 77 119
200 210 174 143 131 120 123 125 139 128 117 101 96 81 83 80 93 108 95 80 87 77 75 68 60 68 63 65 55 51 38 7 8 -4 12 8 12 32 29 -17 -8 14 40
Wind_Speed
14 11 13 13 14 17 20 21 23 25 27 28 28 27 28 28 29 30 31 32 33 33 34 34 34 35 36 38 39 40 42 43 43 43 40 37 34 33 32 31 29 30 24
8 10 12 13 14 15 18 19 21 23 24 27 26 26 27 27 28 29 30 32 32 33 34 34 36 37 39 39 41 43 44 43 43 42 41 33 27 30 31 30 30 30 25
8 8 10 12 13 15 17 19 20 21 24 25 25 25 26 27 28 30 32 35 35 36 37 39 40 39 40 41 43 45 46 45 45 44 42 37 16 25 31 31 31 29 26
10 9 10 11 11 13 15 17 19 19 21 24 25 25 26 27 29 31 34 36 38 41 43 44 44 45 44 44 46 46 47 47 47 49 41 22 40 23 28 30 30 29 24
11 10 11 10 11 13 16 17 18 20 25 22 23 25 26 28 30 32 35 37 39 41 43 45 46 47 48 49 50 51 50 50 52 51 43 37 36 27 25 29 28 24 21
11 10 10 11 12 14 15 16 17 21 27 23 23 25 26 29 32 35 37 40 42 44 47 49 50 50 49 48 49 50 52 54 55 50 48 38 34 33 31 32 40 39 25
14 13 11 13 13 14 15 15 17 21 23 22 23 25 27 29 32 35 38 41 44 46 49 51 53 54 54 53 54 52 52 55 56 58 61 53 39 24 33 37 40 42 34
13 13 14 15 15 16 15 18 19 20 21 23 24 25 27 30 33 36 40 43 46 49 51 53 55 55 56 56 55 57 55 54 53 52 50 55 39 30 34 38 43 48 43
15 14 15 15 16 17 21 20 21 21 21 23 24 26 29 32 35 37 41 44 48 51 53 56 57 59 59 59 57 55 59 62 55 52 59 56 43 44 40 42 46 51 53
16 16 16 15 15 18 19 20 20 22 23 25 27 29 29 32 34 40 43 48 52 55 56 59 59 61 61 59 55 57 60 65 56 51 43 51 63 54 54 54 56 57 57
16 18 17 16 17 15 16 16 19 22 25 26 28 32 32 37 41 42 47 52 54 60 59 62 63 64 62 59 51 52 63 55 56 59 59 44 46 58 65 66 65 64 59
16 17 17 16 14 13 17 18 21 24 28 30 34 36 38 40 43 46 47 49 52 60 56 62 61 64 60 62 61 55 59 63 64 63 62 54 55 60 67 70 70 68 68
13 16 15 14 15 16 18 20 24 26 29 32 37 40 41 43 47 49 51 54 56 59 60 63 62 63 66 65 65 65 67 67 65 65 63 56 61 65 70 76 78 75 73
13 13 13 13 15 19 19 23 25 28 31 35 38 44 43 45 48 51 53 54 55 58 61 61 62 65 66 67 67 68 68 68 67 70 71 73 70 73 77 82 83 84 80
13 12 12 14 16 19 22 25 28 31 33 36 39 43 45 46 47 49 50 52 54 57 60 62 63 65 66 66 67 69 70 71 70 70 72 78 81 78 78 81 84 85 85
11 11 13 16 18 20 23 25 27 31 32 35 39 42 44 44 46 47 49 52 54 56 59 60 63 65 65 66 68 69 72 72 72 72 74 77 79 79 78 80 80 82 86
11 10 14 16 18 21 22 24 27 28 30 33 35 41 45 47 48 49 50 52 55 56 59 60 61 62 64 66 69 71 72 71 71 71 73 74 76 76 74 72 77 78 80
10 12 14 17 18 20 22 23 25 27 29 32 35 40 44 48 50 49 50 54 56 56 57 59 62 64 65 67 71 72 68 68 68 67 65 69 69 71 72 70 69 72 79
13 14 15 16 18 20 22 24 25 26 30 32 36 40 44 47 50 49 52 55 55 56 58 61 62 64 65 70 73 70 69 63 61 60 65 65 64 66 65 70 70 69 69
15 16 17 20 21 21 23 24 25 27 29 33 36 40 44 47 49 50 50 54 54 55 58 61 62 63 64 72 73 68 62 57 58 66 67 61 65 68 67 69 68 66 52
14 15 17 18 20 22 24 26 27 29 30 33 36 40 43 47 50 51 51 53 54 55 59 61 61 64 64 72 68 70 58 48 57 64 62 65 69 69 67 66 62 59 59
16 16 18 19 21 24 24 27 27 28 31 33 36 40 45 47 49 50 52 52 54 54 56 59 61 61 59 66 68 62 64 51 76 58 63 63 65 65 64 63 62 62 62
18 18 18 19 20 23 22 22 24 26 29 33 37 40 44 45 46 47 49 51 52 52 54 57 59 60 60 60 61 61 63 65 74 64 61 63 65 64 64 64 64 64 64
17 15 16 17 20 22 24 25 27 32 33 36 38 41 40 44 45 47 47 49 49 50 52 54 56 56 57 59 56 60 53 60 62 65 64 65 63 61 61 63 64 63 62
13 14 15 16 20 22 25 26 28 33 33 33 36 36 37 38 43 46 47 47 48 48 49 52 52 53 53 54 56 59 58 54 54 62 65 72 65 58 57 60 62 62 62
12 14 17 18 20 21 22 28 30 29 30 30 32 32 36 39 41 44 44 45 46 47 48 47 48 50 52 53 54 55 57 56 63 61 68 70 70 60 50 57 61 62 60
Wind_Direction
14 14 359 9 34 43 43 43 34 26 25 28 27 26 37 41 37 34 30 27 22 21 19 17 14 11 7 1 358 353 348 343 344 342 346 348 351 351 348 348 347 347 358
16 12 348 355 9 32 45 42 36 25 20 34 27 24 30 32 30 29 26 24 22 20 17 14 7 1 355 352 348 342 339 339 340 341 341 349 358 354 347 344 342 344 351
22 5 346 341 4 28 32 33 33 30 22 24 23 27 23 20 17 13 10 5 5 5 1 357 355 356 352 348 341 335 333 333 333 335 337 343 7 1 344 338 335 339 345
25 353 344 339 11 20 25 29 25 26 25 14 14 13 10 6 7 4 1 358 357 355 354 352 350 347 344 339 334 331 329 328 326 323 332 351 327 356 345 335 334 333 340
19 6 348 351 358 7 8 12 11 5 6 6 7 6 3 359 358 357 355 353 351 351 350 348 346 343 340 333 325 322 323 322 318 316 324 329 330 344 348 336 333 340 340
13 4 358 358 3 3 7 9 6 360 355 6 360 357 356 352 348 348 348 346 346 345 343 341 339 338 338 335 327 323 319 315 313 315 313 324 326 325 332 329 312 309 328
24 5 360 349 357 6 8 6 5 357 7 6 359 353 355 355 354 351 348 347 347 345 343 340 336 333 332 329 325 323 319 313 309 304 298 305 317 327 322 318 310 304 310
11 2 354 356 358 357 357 346 344 353 1 1 357 353 353 353 353 352 350 347 345 344 341 338 335 334 330 328 325 320 318 314 312 310 308 302 314 316 315 312 305 298 301
11 4 357 353 351 350 341 334 332 331 354 357 353 349 353 353 351 349 348 347 345 341 339 336 334 330 327 324 324 323 317 309 311 308 300 300 315 307 308 305 300 295 292
1 2 3 357 0 340 336 334 333 340 347 345 339 341 349 354 350 347 344 341 339 336 335 332 331 329 327 325 325 321 316 309 310 310 308 301 293 298 299 297 292 289 289
349 350 358 354 348 1 354 357 350 344 346 344 346 342 341 339 337 340 340 337 336 332 331 329 328 327 327 325 326 325 316 315 311 304 302 310 303 296 292 290 288 286 287
331 345 356 358 1 1 345 343 337 338 338 338 337 335 335 337 337 335 337 338 337 333 333 330 329 326 327 325 322 322 318 312 307 304 302 305 302 297 291 288 285 285 282
340 345 354 360 357 349 342 338 334 334 333 335 334 333 334 333 333 334 334 334 333 333 332 329 328 327 324 321 320 317 312 310 307 303 303 307 301 297 292 286 283 283 282
334 348 2 3 355 344 344 338 336 333 334 333 335 333 333 333 334 334 334 335 336 335 333 333 331 329 325 322 319 316 314 310 307 303 299 298 299 296 291 286 282 279 281
330 343 357 355 348 341 337 335 333 333 333 334 334 336 335 336 337 338 339 339 339 338 336 334 333 331 329 326 323 318 314 311 307 305 301 297 294 294 292 287 282 278 276
332 344 350 345 343 340 336 335 334 333 335 335 337 338 340 340 340 341 341 341 341 340 339 338 335 333 330 328 324 321 317 312 309 306 303 299 297 295 293 290 287 284 278
323 338 338 342 343 341 341 339 339 339 338 338 340 341 341 342 341 341 343 342 343 342 341 339 338 336 333 332 327 324 319 316 313 310 306 303 300 298 297 295 291 288 286
313 320 330 334 338 339 341 343 345 344 343 342 342 343 344 344 343 344 342 342 341 341 341 340 337 336 334 332 329 326 324 321 317 315 314 311 308 304 301 301 295 293 290
304 312 320 334 334 337 340 342 344 343 342 343 343 343 344 344 344 342 341 340 341 340 339 338 337 335 333 332 329 327 325 324 324 324 320 318 313 313 310 305 302 300 299
299 305 313 319 324 332 335 338 341 342 342 343 344 344 344 344 343 342 342 341 341 340 339 337 336 335 334 331 328 328 327 329 329 323 317 321 317 312 309 307 305 303 311
291 299 309 315 320 323 324 325 328 329 334 337 341 344 344 342 341 340 340 340 339 338 337 336 335 334 334 333 331 331 333 333 334 329 324 320 318 316 313 308 309 308 303
285 294 302 309 314 318 323 328 330 332 334 337 338 340 340 340 341 341 341 340 339 339 339 339 340 339 339 342 337 334 329 332 334 337 332 329 326 325 322 320 314 309 308
286 292 300 308 314 319 324 329 332 335 333 332 334 336 339 341 342 341 342 342 343 345 343 343 342 342 340 344 346 340 330 327 329 333 334 336 330 328 325 320 319 314 309
286 297 305 312 318 321 321 323 322 322 324 329 331 334 339 340 341 343 346 346 349 347 347 346 345 344 344 341 344 343 343 333 332 329 332 333 335 334 331 329 322 319 314
289 294 304 311 318 320 321 324 324 324 327 328 330 335 341 344 344 344 347 350 350 350 349 347 348 350 350 348 345 342 342 344 344 333 332 328 331 333 333 335 333 324 318
295 295 298 302 309 316 321 324 324 326 329 332 335 337 338 339 345 347 349 348 348 348 349 351 352 354 351 351 350 349 346 346 339 339 332 328 326 332 338 337 337 333 322